N2DJ Weather Reports


time (UTC)temp
F
wind
direction
speed
knots
gust
knots
rain 1hr
in
rain 24hr
in
rain mn
in
humidity
%
barometer
mb
20260903230051 75 151 0.0 1.7 0.00 0.93 0.07 97 1012.8
20260903224600 75 147 0.0 1.7 0.00 0.98 0.07 96 1012.8
20260903223050 76 147 0.0 0.9 0.00 0.98 0.07 96 1012.8
20260903221550 76 147 0.0 0.9 0.00 0.98 0.07 96 1012.8
20260903220105 76 132 0.0 0.9 0.04 0.98 0.07 96 1012.5
20260903214548 76 132 0.0 0.9 0.07 0.98 0.07 95 1012.4
20260903213047 76 132 0.0 0.9 0.07 0.98 0.07 94 1012.4
20260903211613 76 132 0.0 0.0 0.07 0.98 0.07 92 1012.3
20260903210045 78 132 0.0 0.9 0.02 0.93 0.02 89 1012.6
20260903204544 79 174 0.9 2.6 0.00 0.91 0.00 86 1012.6
20260903203044 80 139 0.9 5.2 0.00 0.91 0.00 85 1012.5
20260903201543 81 122 0.0 4.3 0.00 0.91 0.00 86 1012.8
20260903200043 80 197 0.9 5.2 0.00 0.91 0.00 85 1013.0
20260903194546 80 298 0.0 1.7 0.00 0.91 0.00 86 1013.1
20260903193042 80 222 0.9 5.2 0.00 0.91 0.00 85 1013.0
20260903191541 80 230 0.0 10.4 0.00 0.91 0.00 85 1012.9
20260903190040 80 232 1.7 7.8 0.00 0.91 0.00 84 1013.2
20260903184540 81 162 0.9 7.0 0.00 0.91 0.00 84 1013.3
20260903183039 81 254 0.9 6.1 0.00 0.91 0.00 84 1013.3
20260903181538 81 217 0.9 7.0 0.00 0.91 0.00 84 1013.4
20260903180037 80 271 2.6 9.6 0.00 0.91 0.00 84 1013.4
20260903174553 80 188 2.6 5.2 0.00 0.91 0.00 85 1013.6
20260903173036 80 179 0.9 7.0 0.00 0.91 0.00 87 1013.6
20260903171534 79 153 1.7 7.8 0.00 0.91 0.00 85 1013.7
20260903170036 79 182 0.9 7.0 0.00 0.91 0.00 87 1013.7
20260903164530 79 191 0.9 4.3 0.00 0.91 0.00 87 1013.6
20260903163030 79 130 1.7 7.8 0.00 0.91 0.00 85 1013.8
20260903161528 79 279 1.7 7.0 0.00 0.91 0.00 86 1013.9
20260903160024 78 188 0.9 4.3 0.00 0.91 0.00 87 1014.0
20260903154523 77 205 0.9 4.3 0.00 0.91 0.00 87 1014.2
20260903153021 77 236 0.9 4.3 0.00 0.91 0.00 89 1014.2
20260903151520 77 198 1.7 7.8 0.00 0.91 0.00 87 1014.4
20260903150024 76 340 0.0 6.1 0.00 0.91 0.00 91 1014.4
20260903144516 76 269 0.0 3.5 0.00 0.91 0.00 91 1014.6
20260903143014 75 205 0.9 3.5 0.00 0.91 0.00 93 1014.6
20260903141516 75 248 0.0 3.5 0.00 0.91 0.00 92 1014.5
20260903140112 76 188 0.0 2.6 0.00 0.91 0.00 93 1014.4
20260903134508 75 256 0.9 4.3 0.00 0.91 0.00 96 1014.4
20260903133005 73 313 0.9 3.5 0.00 0.91 0.00 98 1014.5
20260903131602 72 233 0.9 3.5 0.00 0.91 0.00 99 1014.6
20260903130112 71 246 0.0 4.3 0.00 0.91 0.00 99 1014.6
20260903124553 71 245 0.0 3.5 0.00 1.63 0.00 99 1014.9
20260903123049 70 240 0.0 1.7 0.00 1.63 0.00 99 1015.0
20260903121548 69 240 0.0 4.3 0.00 1.63 0.00 99 1014.8
20260903120045 69 240 0.0 2.6 0.00 1.63 0.00 99 1014.8
20260903114542 69 261 0.9 3.5 0.00 1.68 0.00 99 1014.6
20260903113040 69 250 0.0 1.7 0.00 1.68 0.00 99 1014.3
20260903111613 69 272 0.0 2.6 0.00 1.68 0.00 99 1014.2
20260903110040 69 274 0.0 0.9 0.00 1.68 0.00 99 1014.1
20260903104542 69 274 0.0 0.9 0.00 1.68 0.00 99 1013.7
20260903103033 69 274 0.0 0.9 0.00 1.68 0.00 99 1013.5
20260903101539 69 274 0.0 1.7 0.00 1.68 0.00 99 1013.6
20260903100032 69 272 0.0 1.7 0.00 1.68 0.00 99 1013.4
20260903094529 69 282 0.0 1.7 0.00 1.68 0.00 98 1013.3
20260903093037 69 204 0.0 0.0 0.00 1.68 0.00 98 1013.2
20260903091532 69 206 0.0 2.6 0.00 1.68 0.00 98 1013.1
20260903090028 69 205 0.9 2.6 0.00 1.68 0.00 98 1013.0
20260903084533 69 206 0.0 1.7 0.00 1.68 0.00 98 1012.9
20260903083027 69 206 0.0 0.0 0.00 1.68 0.00 98 1013.1
20260903081527 69 206 0.0 1.7 0.00 1.68 0.00 97 1013.0
20260903080026 69 206 0.0 1.7 0.00 1.68 0.00 97 1012.9
20260903074525 69 205 0.0 2.6 0.00 1.68 0.00 97 1013.0
20260903073036 70 207 0.0 2.6 0.00 1.68 0.00 97 1012.9
20260903071525 70 242 0.0 1.7 0.00 1.68 0.00 97 1012.8
20260903070034 70 154 0.0 6.1 0.00 1.68 0.00 98 1012.8
20260903064519 70 194 0.9 7.8 0.00 1.68 0.00 97 1013.2
20260903063019 70 227 0.9 5.2 0.00 1.68 0.00 98 1013.3
20260903061533 69 347 0.9 4.3 0.00 1.68 0.00 98 1013.2
20260903060017 69 265 0.9 3.5 0.00 1.68 0.00 98 1013.1
20260903054517 69 265 1.7 7.0 0.00 1.68 0.00 98 1012.8
20260903053015 70 275 1.7 7.8 0.00 1.68 0.00 99 1013.1
20260903051515 70 178 2.6 8.7 0.00 1.68 0.00 99 1012.9
20260903050014 69 177 1.7 7.8 0.00 1.68 0.00 99 1013.0
20260903044511 69 156 0.9 7.8 0.00 1.68 0.00 99 1013.0
20260903043009 69 182 0.0 2.6 0.00 1.68 0.00 99 1012.7
20260903041509 68 186 0.0 2.6 0.00 1.68 0.00 99 1012.5
20260903040008 69 174 0.0 1.7 0.00 1.68 1.68 99 1012.2
20260903034509 69 173 0.0 3.5 0.00 1.68 1.68 99 1012.2
20260903033005 69 207 0.0 2.6 0.00 1.68 1.68 99 1012.4
20260903031504 69 196 1.7 6.1 0.00 1.68 1.68 99 1012.7
20260903030004 69 204 0.9 5.2 0.00 1.68 1.68 99 1013.2
20260903024503 69 180 0.0 4.3 0.00 1.68 1.68 99 1013.0
20260903023003 69 163 0.0 6.1 0.01 1.68 1.68 99 1013.9
20260903021502 69 175 1.7 7.8 0.23 1.68 1.68 99 1013.7
20260903020003 69 173 1.7 5.2 0.24 1.68 1.68 99 1013.9
20260903014500 69 121 0.9 5.2 0.25 1.68 1.68 98 1013.7
20260903013001 69 91 1.7 5.2 0.24 1.67 1.67 98 1013.8
20260903011609 69 212 0.9 5.2 0.03 1.45 1.45 98 1013.4
20260903010117 69 190 0.9 7.0 0.04 1.44 1.44 98 1012.9
20260903004600 69 147 0.9 6.1 0.09 1.43 1.43 98 1012.5
20260903003104 69 48 0.0 0.0 0.14 1.43 1.43 97 1012.1
20260903001600 69 351 0.0 3.5 0.16 1.42 1.42 97 1012.1
20260903000058 69 328 3.5 8.7 0.56 1.40 1.40 97 1011.9
20260902234557 70 331 4.3 9.6 0.56 1.34 1.34 96 1012.7
20260902233057 71 341 5.2 12.2 0.52 1.29 1.29 95 1013.7
20260902231609 73 312 3.5 11.3 0.49 1.26 1.26 95 1013.5